SNUSAT-1B (42733 NORAD) Tracking and Keplerian Element Data

This shows tracking and keplerian element data for the satellite.

Feedback or suggestion? Click here.




ElementValue
Catalog42733
NameSNUSAT-1B
Epoch Orbit8412
Epoch Day318.83029715
Epoch Year2018
RAAN302.8481
Inclination51.6292
Eccentricity0.0006938
Argument of Perigee55.0625
Mean Anonmoly305.1028
Mean Motion15.8099858
Decay Rate0.00054494
L11 42733U 98067MN 18318.83029715 .00054494 00000-0 27542-3 0 9994
L22 42733 51.6292 302.8481 0006938 55.0625 305.1028 15.80998580 84128

Live tracking and technical data element details for SNUSAT-1B (NORAD 42733). SNUSAT-1B can be tracked NOW for your location showing map with azimuth and elevation plus other details from your city location.

Track the satellite on the map from your city or location and see movement details for azimuth, elevation, latitude, longitude, range, height, and movement on the map or in text.







IsCatalogInMostPopularTable: catalog: 42733, numindb: 156
Update: records affected: 1



GetName: 42733 SNUSAT-1B

Hit Count: updated at: Fri, 16 Nov 2018 04:59:50 GMT